GFSNGP_850_spd_000.txt.gz
Wind_Speed
20 9 7 8 7 9 8 7 7 9 10 11 12 13 18 27 25 26 31 33 37 39 39 37 37 40 43 46 49 52 54 54 52 51 51 45 32 30 21 21 22 20 19 18
17 13 11 9 8 9 7 3 7 3 8 9 6 8 11 24 28 30 34 39 38 36 37 35 34 36 39 41 42 44 48 52 52 48 50 44 27 32 27 25 23 23 24 21
11 7 6 5 16 9 6 6 9 8 13 7 6 9 15 22 29 35 39 41 37 34 30 26 26 29 33 34 36 39 40 43 44 44 44 39 26 23 37 26 25 26 27 24
13 4 5 12 4 12 11 3 5 3 6 8 6 16 14 19 31 39 39 32 31 24 22 20 18 19 21 25 28 31 33 35 37 37 38 37 28 30 33 32 29 27 25 24
4 6 4 1 3 4 7 4 4 4 1 5 7 5 6 6 15 19 24 19 15 8 6 2 3 7 11 15 20 24 27 29 31 31 29 37 26 32 32 38 31 27 24 23
2 6 8 4 3 3 4 1 7 5 6 8 12 4 3 8 4 10 15 17 18 13 9 3 2 4 7 12 17 18 21 21 23 24 27 26 26 29 35 37 36 32 24 19
1 2 5 4 9 6 5 3 6 7 3 11 6 10 23 29 29 25 23 16 11 6 2 1 2 4 6 7 10 10 12 17 19 19 27 27 26 28 32 31 32 26 24 26
2 3 1 18 9 6 8 19 22 26 31 34 30 30 33 30 30 27 23 19 15 10 8 9 12 13 12 14 9 8 11 13 17 18 22 25 24 25 28 30 28 20 27 31
2 1 7 16 5 20 21 30 29 34 27 25 26 24 23 24 22 19 17 14 14 14 13 14 16 16 12 14 11 9 9 10 15 21 22 21 19 15 12 8 11 16 26 27
3 6 8 17 16 20 25 31 29 25 26 22 21 19 18 17 13 14 13 12 13 15 19 12 11 12 10 13 10 9 7 10 13 16 19 17 16 16 6 7 15 21 21 17
6 4 4 14 15 21 27 30 28 25 21 19 14 18 16 14 14 13 13 12 12 11 12 10 8 6 7 9 10 10 8 9 13 19 22 22 21 13 9 18 19 16 17 15
5 17 9 16 11 20 26 29 25 22 23 22 17 14 11 13 14 11 9 8 10 10 10 8 6 4 5 9 9 7 13 18 19 22 17 19 18 17 19 16 13 13 16 15
6 25 29 27 27 23 30 26 23 22 20 20 20 17 15 14 11 11 10 8 6 5 4 6 4 6 6 11 16 15 13 14 17 10 13 19 19 16 15 15 15 15 11 9
27 26 23 19 17 22 22 20 18 18 16 15 14 15 13 12 10 12 11 9 9 7 6 5 5 4 10 14 12 9 10 13 13 18 14 15 18 15 14 13 11 9 6 6
28 29 26 17 17 16 14 13 13 15 14 13 14 12 13 12 10 8 10 11 9 9 11 11 11 13 13 13 14 9 13 16 14 10 9 10 9 10 13 10 10 7 6 6
21 21 17 17 16 15 13 13 13 13 13 12 12 14 15 15 14 11 10 11 11 12 17 18 17 15 16 16 13 11 7 7 5 3 3 3 3 6 6 7 9 10 7 7
15 20 16 18 17 16 15 13 12 12 13 11 11 14 17 16 14 10 9 11 13 11 13 18 16 15 15 11 10 10 8 6 5 4 3 3 3 5 6 7 7 7 7 8
15 14 14 12 14 15 14 13 12 11 12 11 13 14 17 16 12 7 7 11 11 9 13 17 16 12 10 13 12 10 8 7 6 7 8 9 9 10 9 7 7 8 10 10
16 15 14 13 13 13 14 14 14 12 8 10 14 15 16 16 12 8 9 11 7 7 11 12 13 11 11 7 6 7 7 7 7 8 9 10 11 12 11 9 9 11 13 12
17 16 14 14 13 13 14 12 12 11 11 13 14 12 12 13 8 4 4 3 2 3 5 8 9 6 5 7 6 5 6 6 6 6 6 8 10 11 10 11 11 14 14 14
13 13 12 13 14 13 13 10 11 10 10 11 10 10 11 10 10 6 3 1 2 4 3 4 5 5 5 4 3 3 3 3 4 4 5 8 9 10 10 10 10 10 11 12
7 7 8 10 12 11 10 8 9 6 5 6 6 5 6 7 7 3 2 4 5 4 4 4 4 3 2 1 1 2 3 3 3 2 3 6 6 7 8 8 8 7 8 9
7 8 9 9 9 10 11 9 7 4 4 4 5 6 8 9 8 6 3 1 1 3 4 4 3 3 2 1 1 2 3 3 5 9 12 13 15 15 12 9 8 8 9 9
9 9 7 9 11 8 7 9 8 6 4 4 4 6 7 8 6 5 4 4 2 5 6 5 5 6 5 5 5 5 7 6 8 9 7 7 6 12 16 13 12 13 14 14
9 9 7 9 12 6 5 7 8 8 6 5 5 3 6 8 7 4 2 1 2 5 6 7 9 9 10 10 10 10 10 11 10 9 10 12 9 8 9 10 13 15 18 18
7 7 9 9 9 8 7 8 8 9 7 3 4 5 5 7 7 6 5 5 4 5 6 8 10 11 11 12 13 13 14 15 14 12 11 13 14 11 10 10 11 12 18 19
8 8 6 5 5 5 7 6 9 9 8 8 9 10 11 12 13 13 11 9 11 11 11 11 12 14 15 15 15 17 16 15 15 14 14 12 13 14 15 13 11 10 9 11

GFSNGP_850_spd_003.txt.gz
Wind_Speed
23 25 24 22 21 17 20 25 18 19 18 17 16 16 21 25 15 14 19 23 31 31 30 31 32 32 33 34 38 40 44 47 48 43 43 44 42 41 33 36 36 28 27 26
16 22 24 26 24 18 22 23 19 12 12 13 12 14 12 20 18 19 24 29 32 30 32 32 29 28 28 28 29 31 35 37 36 37 41 40 40 42 45 26 13 43 35 31
8 10 16 22 25 21 14 14 16 15 10 7 7 11 20 22 21 25 29 31 32 35 32 27 23 21 20 19 18 21 23 26 29 31 32 34 35 36 42 34 25 46 40 35
7 2 9 14 19 24 24 21 15 14 11 9 12 7 5 13 17 16 16 20 21 19 19 14 10 7 7 6 6 10 14 18 23 23 25 26 28 34 42 33 29 36 38 35
5 5 11 8 7 9 15 18 7 11 10 3 5 12 3 5 12 12 14 10 7 10 12 15 14 10 6 3 0 5 10 14 17 17 18 22 26 31 37 29 28 36 37 30
3 9 8 3 6 6 3 13 6 8 7 4 7 10 4 1 9 12 16 22 28 27 25 22 19 16 12 9 5 1 5 8 9 12 15 15 23 30 36 27 30 34 34 25
9 9 8 5 14 5 10 6 8 9 8 11 3 6 12 19 23 27 28 32 29 25 25 22 17 12 7 2 2 7 8 9 12 13 14 16 25 32 34 25 29 34 32 29
5 6 8 23 10 5 7 12 20 27 31 29 24 24 22 26 31 35 33 25 23 22 19 16 12 2 4 8 9 10 13 11 14 15 18 21 26 28 24 22 21 22 23 21
5 5 16 15 6 9 19 22 21 34 31 27 26 21 23 24 24 26 23 22 15 11 7 5 3 1 4 10 14 11 10 12 15 15 19 19 22 24 18 16 20 20 19 19
5 4 7 9 10 13 12 15 13 21 26 27 24 20 21 21 19 18 15 15 14 11 9 5 2 2 7 10 9 11 10 12 14 18 19 19 20 19 14 13 12 13 12 18
6 9 5 7 7 10 14 16 25 25 22 20 23 21 18 20 18 17 15 14 11 8 7 5 2 4 7 7 9 6 12 16 16 15 16 15 19 18 18 16 14 16 16 14
7 8 4 6 8 16 24 21 19 28 26 23 23 22 18 21 19 17 14 11 8 6 5 5 4 4 4 7 9 15 16 17 15 13 14 17 18 20 18 16 12 13 12 10
2 18 22 12 14 15 27 26 26 29 27 24 22 21 21 20 16 12 10 7 4 4 4 5 5 4 7 9 13 18 11 8 10 12 13 13 19 24 22 14 11 9 6 9
22 33 23 16 14 18 24 21 20 22 20 18 15 15 14 13 11 10 10 8 7 3 5 5 7 6 7 10 14 13 12 8 13 13 7 8 13 20 14 11 9 7 11 11
28 29 26 22 24 20 13 12 16 17 14 13 12 12 13 13 9 5 4 5 6 7 3 8 8 9 9 10 8 7 6 10 14 8 11 9 12 15 16 14 14 14 12 10
20 21 18 16 9 12 10 12 15 13 12 10 10 13 13 12 10 7 4 4 7 9 9 8 11 10 9 9 11 6 7 10 12 8 7 7 6 7 11 13 13 14 12 12
16 17 13 9 10 10 9 10 10 10 10 10 12 12 13 14 10 7 5 5 8 10 9 8 10 10 9 11 11 8 5 8 8 9 7 6 7 6 8 12 13 11 12 12
10 12 13 10 8 8 9 9 9 8 6 7 8 9 10 12 11 9 8 7 8 7 5 7 12 10 8 8 7 8 12 9 8 6 6 6 7 8 10 11 10 12 13 12
14 12 13 14 11 9 8 8 8 7 7 8 9 12 11 10 8 6 7 8 6 1 4 5 6 8 8 5 8 10 11 10 9 8 8 8 9 10 10 10 10 10 9 11
12 13 15 15 17 17 15 14 13 11 10 10 7 8 8 9 9 5 7 6 8 6 6 6 5 4 4 8 10 9 7 6 7 7 7 7 8 9 10 10 8 9 9 11
14 17 18 19 19 17 16 16 15 10 9 10 10 9 9 10 9 8 7 4 3 2 4 5 6 8 9 7 4 4 4 4 4 3 5 7 8 7 8 8 8 8 8 10
15 14 14 14 15 17 15 15 13 12 10 10 11 11 11 10 9 7 4 5 6 7 7 8 8 6 5 3 3 2 1 0 1 2 2 3 5 6 7 7 6 6 6 8
12 10 10 12 13 10 12 13 13 9 9 10 10 10 11 10 9 6 4 3 2 1 4 5 4 4 3 3 3 3 2 1 2 3 5 8 10 11 11 9 8 7 7 7
10 7 8 12 16 10 8 9 11 11 9 8 8 8 10 11 8 8 4 2 1 4 5 5 5 5 5 6 5 4 4 5 5 4 5 6 6 7 10 13 11 9 10 12
8 6 7 9 9 10 7 10 10 10 8 4 6 5 6 8 9 7 4 3 2 4 7 8 10 10 11 11 11 10 10 10 9 9 8 8 9 9 8 9 10 11 12 14
7 7 6 4 5 5 7 7 7 9 9 5 5 6 8 8 8 7 6 7 7 6 6 9 11 13 14 14 15 16 16 15 14 13 12 11 11 13 13 13 13 14 15 15
4 5 6 5 5 6 7 7 9 11 11 10 11 12 12 12 12 13 13 12 13 13 14 14 15 16 17 17 18 19 19 19 18 16 15 14 14 13 14 15 15 16 14 13

GFSNGP_850_spd_006.txt.gz
Wind_Speed
22 22 20 24 28 28 31 32 29 23 29 25 23 21 20 25 23 16 16 18 26 30 32 33 33 35 33 31 29 29 28 28 28 25 25 27 34 41 40 41 41 41 40 45
21 23 25 23 26 28 27 28 30 32 31 23 30 32 31 30 28 21 22 21 26 28 28 30 28 28 26 26 25 24 25 25 23 23 25 29 36 37 40 46 49 49 46 41
17 18 22 24 27 27 29 27 25 25 27 30 26 22 29 31 26 24 25 25 28 29 26 25 25 24 23 21 21 21 20 21 23 25 26 27 28 30 35 42 49 48 45 37
12 2 14 15 19 23 25 28 24 21 18 23 21 24 28 28 20 25 21 20 23 25 24 22 22 20 19 19 20 21 21 21 22 22 22 22 23 24 26 32 42 45 38 35
12 14 8 14 7 17 22 24 27 21 22 14 14 14 17 12 13 18 18 20 23 24 23 23 23 23 23 21 20 20 19 18 19 19 19 20 21 22 23 26 33 31 31 27
9 15 17 2 9 14 13 15 24 26 20 22 15 13 14 11 11 14 19 19 23 25 26 27 27 27 26 23 20 17 14 14 13 15 17 18 17 19 20 23 24 25 24 22
11 11 10 10 13 5 8 7 22 24 27 23 16 6 8 13 13 15 20 23 28 27 28 31 30 27 24 20 15 12 11 13 14 15 17 17 17 17 19 21 21 24 22 21
6 11 15 8 1 2 14 18 10 13 18 19 16 17 17 19 22 25 28 26 29 32 30 26 24 21 16 13 10 11 13 15 16 17 18 19 20 18 20 19 23 20 18 22
10 7 5 6 2 1 8 3 5 12 20 26 31 28 29 29 26 29 30 27 25 24 24 21 20 16 13 11 12 13 15 16 15 15 16 16 15 16 18 18 17 18 19 18
9 5 8 9 9 5 5 10 19 19 25 26 27 31 28 23 23 23 21 20 19 17 16 13 11 11 10 11 11 12 12 14 15 16 16 13 12 11 12 12 11 13 15 18
5 5 12 15 12 7 7 11 18 21 21 20 20 24 28 24 19 19 18 14 11 11 11 13 12 10 9 9 11 14 15 15 15 13 11 11 12 13 10 13 12 11 12 13
5 13 13 14 13 4 13 16 17 22 26 24 25 24 24 25 19 13 15 12 8 8 8 9 9 9 10 12 14 15 14 13 10 9 8 8 8 14 15 12 11 10 11 11
4 8 20 21 10 8 16 17 22 24 22 22 22 22 20 20 16 15 16 12 5 4 6 9 10 12 11 12 13 14 12 11 8 10 10 11 10 10 8 15 12 10 10 12
19 26 19 20 13 14 10 17 21 20 18 17 16 14 13 11 11 12 12 10 6 3 5 8 10 11 11 11 11 9 9 7 8 11 12 9 9 10 10 10 8 12 13 12
24 25 22 19 25 9 9 11 16 15 11 12 12 12 11 10 8 7 4 3 2 3 3 6 8 9 9 9 9 6 4 8 12 12 9 8 9 10 12 11 10 10 13 13
16 19 17 19 16 11 10 12 11 10 8 9 10 11 9 9 7 3 0 1 2 3 2 5 9 10 11 10 10 9 9 13 13 7 8 8 9 9 9 10 12 13 11 10
14 20 19 12 12 12 15 11 8 8 8 11 11 10 11 9 5 4 3 1 1 1 2 5 10 10 11 11 12 8 7 9 12 10 9 8 7 7 7 9 9 11 11 12
14 15 12 5 8 8 9 5 5 6 7 6 4 4 6 4 5 6 5 4 3 3 4 7 9 11 12 12 11 8 10 11 10 8 7 7 7 7 8 9 9 10 10 15
10 8 6 8 7 5 3 3 5 5 5 7 5 5 6 7 7 6 4 5 3 5 4 7 12 9 10 12 10 9 8 8 7 7 7 8 8 9 9 10 11 11 13 13
8 6 8 9 7 7 6 7 5 4 5 5 4 7 7 7 7 5 5 8 7 6 9 11 10 11 10 9 9 7 7 7 6 6 6 7 9 10 10 11 10 11 12 12
9 9 11 12 11 9 8 7 7 8 8 8 8 8 7 6 7 6 4 5 5 8 8 10 7 7 7 10 8 6 5 5 5 5 5 6 9 10 11 11 10 11 14 13
8 8 9 9 9 10 10 10 9 9 9 9 9 8 7 8 6 5 6 8 5 8 5 7 7 10 7 8 5 5 4 4 4 4 5 6 8 9 10 11 12 11 12 12
8 8 11 12 10 9 10 11 11 9 8 8 8 8 8 7 6 5 6 5 3 5 4 5 6 6 6 5 4 5 5 4 3 4 5 7 8 10 11 11 11 11 11 11
7 7 7 9 11 8 10 12 11 10 8 7 6 6 7 7 5 6 4 2 1 4 4 5 5 4 3 4 4 5 5 5 5 6 6 7 7 8 10 12 14 14 13 13
10 8 9 10 11 12 11 11 8 10 9 4 5 5 4 5 6 5 3 4 4 0 4 6 6 7 7 7 9 9 10 10 10 9 10 10 10 10 11 11 12 14 15 14
12 12 11 11 10 10 10 10 10 10 10 9 7 7 7 7 7 7 6 6 5 6 5 7 7 10 10 11 12 13 13 13 13 13 12 12 12 12 13 14 14 14 14 15
14 14 12 11 12 11 11 11 10 10 10 9 10 10 10 9 10 10 9 9 10 11 11 12 12 13 12 13 14 14 14 15 15 14 14 14 14 14 13 13 14 14 15 15

GFSNGP_850_spd_009.txt.gz
Wind_Speed
26 25 19 23 27 28 32 31 28 26 30 27 26 23 21 27 21 24 22 16 19 25 30 36 38 41 43 40 39 35 36 34 37 37 35 35 36 40 37 38 39 40 38 38
22 24 24 25 22 28 29 31 33 32 32 25 29 34 23 24 24 24 24 18 19 23 28 33 37 38 41 43 38 37 36 38 35 35 34 36 38 37 38 38 36 40 42 41
21 22 21 23 28 26 24 26 27 28 30 28 29 25 25 33 30 30 32 31 20 23 29 33 36 35 36 40 38 36 38 35 34 32 35 36 36 36 39 37 34 41 46 44
18 17 20 18 18 26 28 27 27 27 24 25 25 36 37 31 29 32 35 37 21 24 28 31 31 30 32 32 39 37 35 34 32 34 32 32 32 34 34 29 31 39 43 43
16 16 10 11 11 5 11 18 26 25 25 28 30 33 33 46 40 33 31 29 20 25 30 32 33 33 33 31 32 31 28 30 31 30 28 26 29 28 28 26 29 30 33 37
14 23 24 11 10 8 5 12 14 17 18 26 21 19 18 39 27 22 23 23 20 25 32 31 32 31 32 30 29 29 27 26 25 26 25 24 22 24 22 21 23 19 21 21
18 16 16 4 7 2 10 7 14 16 23 25 20 24 8 12 25 22 23 20 22 26 31 32 31 31 31 30 28 25 23 23 23 22 22 19 19 18 18 18 18 19 20 19
19 22 24 5 8 12 6 13 16 16 21 29 30 29 6 7 12 17 21 23 27 28 29 29 31 33 31 29 27 26 25 22 22 20 18 19 17 15 17 16 16 16 16 17
13 14 9 9 10 3 8 10 10 10 13 16 6 10 10 11 14 16 18 25 26 27 31 27 27 28 27 24 26 24 23 21 21 21 21 18 17 18 17 15 13 12 12 12
12 12 10 14 10 5 5 4 2 5 1 5 9 13 16 20 23 27 27 28 28 27 29 24 20 19 18 19 19 20 21 19 19 19 19 17 17 15 12 10 10 11 10 11
16 16 18 17 12 10 9 8 13 18 21 12 18 20 22 20 22 23 25 27 24 20 21 19 18 15 14 14 15 14 15 16 19 15 15 13 14 12 12 12 11 8 6 5
9 18 23 16 14 11 13 16 16 19 19 15 19 21 20 19 19 18 20 22 22 19 17 16 14 14 12 14 15 16 18 16 15 15 15 12 13 14 13 10 12 12 8 6
12 26 29 24 22 19 18 15 16 17 18 17 17 19 17 18 17 18 17 18 19 17 16 15 14 11 11 14 14 15 14 14 13 13 12 13 12 11 12 15 10 9 7 9
20 24 20 16 15 23 22 17 16 16 14 14 13 13 14 16 15 17 16 16 15 13 14 14 14 13 11 11 16 14 15 16 14 14 14 13 12 12 9 7 8 10 12 10
22 21 22 17 15 19 24 25 14 13 15 17 15 14 13 11 12 10 9 11 10 10 8 11 13 12 13 11 12 14 11 11 12 13 14 12 11 10 9 9 8 11 7 14
23 29 26 23 21 15 16 13 16 13 14 13 11 12 10 8 8 5 6 7 6 6 5 9 10 9 11 11 11 9 10 15 14 13 10 10 10 9 10 9 9 13 6 9
21 24 26 23 20 12 11 13 14 18 11 8 8 9 8 7 8 8 6 4 6 4 3 6 11 11 11 11 10 9 9 13 14 10 9 10 9 9 9 9 10 10 13 19
24 24 23 17 10 11 5 2 2 1 4 7 6 6 4 3 6 5 3 2 3 7 4 6 9 11 11 11 11 10 10 9 11 11 11 10 9 8 8 8 7 7 10 10
14 12 6 7 8 7 8 5 1 4 1 1 2 2 3 5 4 4 2 2 2 4 4 10 13 11 10 11 11 9 10 10 10 9 9 9 8 8 8 7 8 8 7 9
8 3 8 9 8 7 6 6 7 5 4 4 4 4 5 5 3 2 4 4 6 5 5 8 10 8 8 14 13 7 8 9 8 8 8 7 9 8 9 8 9 8 8 9
11 8 9 11 11 9 10 10 9 8 8 7 7 6 6 4 3 4 3 4 4 4 6 8 5 5 6 7 5 6 7 8 8 7 10 8 10 10 10 9 8 10 13 15
10 11 10 9 10 11 12 10 9 8 6 8 9 7 6 6 5 5 7 6 4 6 3 3 6 7 5 8 5 7 5 5 5 6 7 7 8 10 10 10 11 11 11 12
10 12 11 10 9 11 9 9 10 10 8 8 9 8 8 6 7 7 8 6 3 4 3 6 3 6 6 4 4 6 6 5 5 5 5 6 7 8 9 10 10 11 12 12
8 8 7 8 10 9 9 7 7 8 5 5 7 7 6 8 7 6 5 6 3 3 3 2 3 5 4 4 6 6 7 6 6 7 7 7 8 8 9 9 11 13 14 12
8 8 7 10 9 8 6 7 1 7 4 3 3 2 1 4 3 4 3 2 6 3 2 4 3 5 5 7 9 8 9 11 11 10 8 9 10 10 11 11 11 11 13 13
12 13 12 11 10 11 11 11 11 11 8 8 7 8 6 5 5 5 2 3 4 4 4 10 9 6 5 9 11 11 12 14 13 12 11 10 12 12 11 12 12 13 12 14
11 12 10 10 10 11 11 10 10 10 11 5 8 9 9 8 7 7 6 7 7 7 8 7 7 8 12 11 12 13 14 13 13 12 11 12 11 12 12 12 12 11 12 13

GFSNGP_850_spd_012.txt.gz
Wind_Speed
28 28 25 26 27 27 26 24 23 20 26 20 23 15 20 21 24 22 15 18 15 17 30 44 45 48 49 45 46 44 45 44 45 44 43 43 41 42 42 40 42 40 41 40
22 24 27 26 26 27 28 29 27 25 26 21 23 26 18 21 30 21 21 16 26 25 22 30 43 48 51 49 47 45 46 47 42 42 42 42 42 40 38 38 35 36 38 38
20 24 24 24 28 22 21 24 24 22 23 19 20 16 14 16 16 23 24 23 14 25 28 27 34 47 51 52 46 47 46 46 44 42 44 42 39 37 37 36 34 38 37 37
17 18 24 19 19 25 24 22 20 22 20 18 20 26 26 26 18 26 29 29 29 20 29 29 30 35 41 44 46 45 45 43 44 43 43 41 38 36 36 37 39 38 36 35
15 19 18 21 16 9 17 19 16 21 17 18 23 24 24 30 28 28 31 27 33 31 32 29 34 36 38 41 47 43 44 41 42 38 40 39 36 35 36 37 34 33 30 31
13 18 25 18 17 7 8 6 9 11 10 9 18 15 13 27 28 32 35 29 21 33 30 31 36 36 40 39 43 48 43 44 37 35 32 35 34 32 30 27 28 26 24 25
13 14 19 6 9 14 12 5 6 8 9 11 8 11 24 19 14 27 36 34 24 20 27 32 37 35 39 39 39 40 37 34 34 31 32 29 28 26 23 21 18 19 19 16
11 9 8 22 12 19 3 3 4 7 10 12 15 20 23 14 7 8 4 11 14 20 27 33 36 34 34 32 29 30 30 28 29 30 29 27 26 21 17 17 18 17 15 15
11 9 6 10 9 8 6 5 7 9 13 15 18 20 16 11 6 16 6 12 15 18 22 24 27 31 31 27 27 28 27 27 27 26 24 21 20 17 17 17 16 15 13 11
13 11 2 10 9 6 9 12 9 16 18 11 13 10 3 7 9 13 13 16 22 23 22 23 25 28 28 29 29 30 29 28 26 25 24 19 19 19 18 17 14 12 12 12
13 13 13 13 15 6 13 19 20 23 27 27 28 31 18 12 17 23 25 24 24 25 24 25 28 30 31 30 31 31 27 25 23 22 22 22 21 19 16 15 13 11 8 7
5 19 14 13 13 16 23 23 23 23 26 25 16 22 27 25 28 29 28 27 26 22 22 23 23 25 27 24 23 23 23 21 22 22 21 22 19 19 17 15 14 11 11 11
5 31 28 27 30 20 25 25 25 24 23 23 23 25 25 24 26 24 23 22 19 20 18 20 21 22 22 23 23 21 20 23 21 16 15 17 16 15 16 16 15 15 15 13
25 27 24 30 23 21 27 25 24 23 21 18 18 22 22 23 20 20 18 16 17 18 20 17 17 19 20 21 19 24 20 17 18 17 13 13 16 10 10 14 16 15 14 11
21 22 21 17 17 25 32 27 25 23 20 19 18 16 15 12 12 13 13 12 13 16 15 18 15 15 15 23 22 21 21 18 17 13 15 16 17 15 16 11 16 11 12 11
24 21 19 22 23 24 23 24 25 23 23 16 15 14 13 12 11 11 9 8 9 12 12 14 14 17 12 15 18 14 14 13 16 15 17 15 13 13 13 14 22 14 10 7
24 18 22 23 21 20 18 14 15 18 21 20 14 10 9 11 12 11 10 8 9 10 5 8 14 14 12 12 13 11 10 11 14 15 13 13 13 12 13 14 13 13 11 8
22 18 18 19 20 18 17 18 19 15 11 10 17 9 7 9 7 9 11 9 6 5 5 6 8 12 12 11 9 8 12 11 11 10 13 15 14 11 11 8 7 14 15 13
13 10 9 10 11 11 14 10 11 3 3 4 10 12 11 7 6 7 8 7 4 3 1 5 5 6 12 10 11 4 11 10 8 13 16 19 9 9 8 8 7 8 6 7
14 8 11 12 9 7 7 7 9 5 5 3 3 3 3 8 8 4 8 7 5 2 2 4 8 6 8 9 10 1 10 6 10 10 12 10 8 12 6 6 9 5 8 9
14 15 16 22 16 13 10 11 9 10 8 9 10 9 7 7 7 6 4 3 3 6 7 6 5 5 3 6 8 5 8 3 6 7 8 9 10 8 5 15 9 10 7 9
17 16 16 15 17 16 14 17 12 11 12 11 8 8 11 8 8 9 10 10 6 7 5 8 6 6 6 6 3 3 3 7 8 2 3 5 2 6 4 4 11 11 12 13
13 13 14 16 15 13 11 9 9 8 7 7 7 8 9 9 9 11 10 7 4 5 5 4 5 1 3 6 6 4 4 6 3 2 3 3 4 5 6 7 7 7 10 11
9 16 10 12 9 12 12 12 9 9 5 8 7 6 7 8 9 7 8 9 6 3 3 2 1 1 6 2 3 4 4 4 5 6 7 8 6 6 6 7 7 9 11 11
11 14 16 19 18 19 17 16 14 12 9 8 6 5 5 8 5 5 3 1 6 2 4 4 2 0 3 8 7 7 6 6 8 6 6 6 5 5 7 8 9 9 9 9
18 15 14 14 15 17 14 14 13 11 13 6 7 9 12 8 5 6 3 5 6 5 7 10 4 3 4 6 7 8 6 10 10 11 12 11 6 7 11 8 8 9 9 9
14 13 13 12 13 12 11 11 13 12 12 12 11 12 13 14 8 7 9 11 11 7 9 9 7 11 7 11 11 12 11 4 8 8 5 6 10 10 10 9 9 9 9 9

GFSNGP_850_spd_015.txt.gz
Wind_Speed
21 16 16 24 16 24 22 18 14 10 16 12 10 10 10 27 28 24 23 21 21 44 51 53 56 55 55 55 54 49 47 47 46 44 43 42 43 42 41 44 45 41 41 42
10 8 24 20 18 19 24 23 19 18 22 7 6 22 11 16 29 29 15 21 18 41 55 56 55 55 56 55 53 50 46 46 44 44 44 44 45 43 41 40 41 44 41 40
9 7 6 15 26 19 11 17 16 18 19 8 11 8 8 23 22 24 31 18 28 29 42 49 52 52 56 56 55 53 49 46 44 43 43 44 44 43 41 39 36 35 34 35
6 6 9 4 10 9 14 10 11 9 13 11 12 25 21 14 8 10 10 17 31 31 30 41 50 52 51 56 57 54 52 48 44 44 42 41 41 42 38 36 35 33 32 33
6 10 3 8 9 5 7 13 8 1 3 8 20 22 14 20 21 22 22 29 19 21 31 36 37 46 54 55 58 56 55 51 49 45 45 45 43 40 37 36 34 33 32 28
3 7 19 3 6 6 3 2 4 10 9 7 6 3 6 7 4 17 25 39 34 41 32 40 40 41 49 55 58 59 57 54 52 47 48 48 44 39 38 34 29 26 28 28
6 8 4 5 4 5 6 5 4 12 9 7 2 2 9 14 9 4 14 18 31 36 28 29 43 43 45 49 54 59 54 52 49 44 47 44 40 39 35 27 24 27 26 25
1 4 4 6 7 5 5 6 6 6 6 3 6 10 10 12 13 10 9 5 28 35 34 27 39 46 47 47 46 44 40 41 38 38 37 37 37 28 27 26 25 22 17 17
5 2 2 4 9 5 8 3 5 9 12 5 8 12 15 10 14 12 9 5 11 30 35 31 38 44 43 39 38 38 38 34 35 35 35 33 29 27 24 22 20 17 16 14
9 11 7 12 2 14 21 26 19 18 19 15 16 12 13 9 9 9 18 19 19 25 29 32 39 35 36 36 34 36 37 36 35 33 29 26 23 22 21 19 17 16 15 14
5 13 26 15 20 10 31 17 9 23 27 24 22 22 19 19 19 16 17 28 34 35 30 27 27 32 32 33 37 37 35 34 31 30 29 28 23 20 17 16 15 14 15 14
3 7 6 11 20 21 31 28 20 24 26 23 21 22 17 20 18 16 15 9 36 37 39 36 34 35 35 33 29 27 25 27 30 31 28 23 22 22 19 15 16 16 14 14
5 8 24 26 36 27 32 26 27 32 34 28 20 15 15 13 10 13 24 41 42 34 32 32 32 31 26 22 22 26 30 29 27 27 25 25 22 20 19 21 18 14 14 14
6 7 21 33 22 31 31 32 33 35 33 26 30 21 11 16 9 22 16 41 14 24 25 25 24 27 26 24 21 20 22 23 23 23 20 21 19 20 19 19 20 21 18 15
21 14 14 18 21 23 29 32 36 33 30 32 32 28 26 20 19 25 19 12 16 18 18 19 20 22 20 20 18 19 19 18 19 19 18 19 21 19 17 19 19 16 16 19
22 18 14 17 24 20 22 28 31 31 29 28 29 25 25 20 20 18 17 15 16 17 12 15 17 18 22 25 19 17 15 12 12 13 18 21 21 17 16 14 13 18 19 17
10 12 13 19 19 17 13 14 16 21 23 27 27 22 17 17 19 19 20 20 21 15 10 12 14 13 15 16 17 16 17 18 15 10 21 24 24 20 19 15 16 20 17 12
19 18 17 19 18 15 16 17 16 15 12 18 22 23 22 13 15 16 15 15 15 14 11 9 10 9 10 14 15 12 10 11 14 21 22 17 16 13 16 14 24 27 20 15
7 9 10 10 10 11 10 12 13 14 18 10 10 17 21 20 12 8 4 5 8 8 8 4 1 2 5 10 9 5 17 12 18 16 12 17 16 15 12 11 18 19 18 13
13 9 16 13 9 12 8 11 15 18 14 10 8 10 10 11 13 10 8 12 7 2 2 3 1 2 4 7 5 3 15 11 12 18 18 19 17 14 11 8 8 12 13 12
26 30 22 22 23 15 16 13 15 19 16 15 16 13 10 9 8 7 12 12 11 8 9 8 6 8 8 10 5 5 8 11 14 16 11 10 10 7 5 3 10 11 9 10
25 19 19 17 18 23 17 19 18 16 16 15 17 16 15 13 12 14 16 13 8 10 10 8 7 6 7 9 7 1 5 5 7 7 14 8 1 4 6 4 11 11 13 16
19 17 18 17 16 16 12 13 12 13 14 13 13 15 15 12 13 14 16 14 8 7 4 3 2 1 2 4 11 7 10 10 10 11 9 9 7 7 6 6 6 8 11 12
25 16 25 26 19 23 19 19 17 12 11 15 14 15 17 9 9 11 10 15 12 6 9 8 5 5 1 3 5 12 5 6 6 3 5 5 7 8 9 8 5 4 5 6
23 22 21 21 26 24 21 22 23 20 17 15 15 20 17 10 13 12 11 10 9 10 14 8 4 8 9 3 2 3 6 4 2 2 2 11 9 7 8 7 10 11 11 12
23 23 24 21 21 24 19 18 19 20 17 16 13 17 16 17 16 14 20 20 20 14 13 8 5 6 7 13 8 6 4 4 6 8 8 6 3 13 9 12 7 12 12 13
20 18 19 22 19 24 19 18 19 15 17 18 18 13 10 10 11 9 12 17 19 13 13 7 11 6 7 8 10 6 3 2 3 1 8 9 9 11 8 10 9 15 16 15

GFSNGP_850_spd_018.txt.gz
Wind_Speed
15 19 20 11 11 19 20 23 20 19 10 10 9 9 12 20 26 36 32 25 16 28 48 56 56 58 60 60 61 59 58 54 52 45 41 41 41 40 42 42 44 45 42 42
8 16 25 22 19 21 18 21 21 10 8 10 14 22 14 20 24 23 34 37 37 50 52 61 61 62 60 60 60 59 59 57 52 47 45 44 44 42 41 42 42 43 44 42
6 7 20 14 31 20 13 13 14 12 10 10 9 10 12 18 17 27 32 37 48 47 54 58 62 65 61 60 58 58 59 58 54 49 47 46 45 44 42 40 38 38 41 41
6 6 18 10 18 16 9 7 9 10 11 12 15 30 36 34 26 18 23 29 30 31 42 51 60 64 57 58 59 58 58 57 55 51 48 46 45 44 41 38 36 33 31 31
4 3 6 5 3 10 9 9 8 10 10 8 22 16 4 28 28 25 19 16 16 22 38 49 53 56 57 56 58 57 57 57 55 52 48 46 45 43 38 34 33 30 27 28
4 3 9 6 5 7 7 2 4 7 7 8 9 6 5 9 21 30 30 30 27 21 24 37 45 54 57 57 58 58 57 55 56 54 49 45 43 41 34 31 27 27 30 26
15 7 8 4 8 2 9 7 3 5 6 8 5 6 11 7 7 16 27 29 33 31 31 29 39 48 50 56 59 56 55 57 58 56 51 44 42 39 36 31 29 28 29 25
3 6 6 23 12 9 5 7 6 8 7 11 12 8 5 4 6 8 12 20 29 36 40 37 42 44 48 51 50 52 58 56 57 57 52 47 44 42 36 32 28 28 23 20
4 1 11 18 7 7 16 18 14 16 12 9 13 14 15 9 3 11 15 16 20 25 34 45 50 53 49 47 53 54 50 50 49 50 49 48 47 40 36 32 30 28 27 29
1 3 11 25 25 16 28 24 19 18 15 14 16 17 18 15 11 4 1 2 9 17 25 34 42 47 49 47 54 49 45 48 48 48 47 46 40 37 36 33 32 30 27 21
1 3 10 27 25 25 22 19 25 26 24 20 18 21 20 19 15 11 7 3 4 5 6 21 40 44 48 52 54 47 45 44 46 43 42 43 43 41 33 31 26 25 22 20
3 6 4 9 17 28 36 33 30 25 23 21 19 18 16 16 16 15 10 10 10 16 2 3 5 26 43 43 48 50 52 35 37 38 39 39 29 18 18 22 21 21 19 17
5 9 4 22 25 28 28 29 27 30 29 17 17 18 19 18 16 13 14 16 16 23 26 23 29 48 47 44 39 44 43 43 42 34 24 21 12 19 33 25 23 21 20 21
20 4 14 25 16 31 35 35 33 27 26 27 26 22 22 17 14 19 20 19 20 25 35 48 78 80 32 27 24 24 26 25 25 33 31 29 34 32 23 25 27 27 22 20
15 14 14 24 28 30 30 31 31 32 30 31 28 27 26 28 25 19 18 15 19 25 21 13 17 21 20 19 20 14 16 24 27 26 26 28 27 24 22 22 22 22 22 21
21 18 19 23 24 22 20 25 27 26 24 22 22 23 23 24 27 27 18 17 19 18 22 17 19 19 20 20 19 21 16 17 21 23 26 29 25 24 22 19 16 15 18 19
24 18 19 20 18 17 18 18 20 24 17 20 20 17 21 25 25 26 25 21 18 22 22 20 21 20 19 17 19 22 21 18 16 19 20 21 20 20 18 15 16 17 22 19
26 23 18 19 18 16 14 16 12 12 18 20 23 20 19 19 20 19 18 21 21 27 26 20 16 15 14 14 13 11 7 11 11 15 15 17 19 20 17 17 18 23 24 22
13 16 20 20 15 16 15 13 11 12 12 13 14 19 23 21 20 21 20 12 16 20 21 16 13 12 9 8 11 10 9 7 7 12 15 18 21 18 21 24 21 20 22 22
16 16 15 9 12 13 15 17 18 19 17 13 9 11 15 15 18 18 19 20 19 14 8 9 12 13 13 11 10 10 8 10 13 16 15 17 18 18 16 16 17 19 19 20
26 31 26 25 23 21 21 20 18 19 18 17 18 18 20 17 13 17 19 20 19 15 16 12 5 6 7 7 9 7 5 4 5 7 13 16 14 12 14 10 11 13 17 18
24 23 24 21 23 22 19 19 19 19 22 19 20 20 19 18 17 17 16 15 13 11 13 13 11 9 8 7 2 10 9 9 11 10 10 14 13 11 11 12 11 14 17 17
33 32 35 36 33 32 23 20 20 23 25 25 22 15 17 18 17 22 23 14 13 13 11 12 13 8 6 8 7 10 10 12 12 11 12 11 11 9 10 9 11 12 13 14
32 31 30 29 29 28 31 27 26 26 25 26 26 25 20 18 10 12 13 14 13 15 13 10 11 11 5 9 12 14 15 13 14 12 10 8 6 6 7 8 8 6 8 10
27 27 26 27 29 27 25 22 21 23 22 21 21 23 22 24 24 23 20 15 12 11 10 11 10 11 11 8 4 6 5 10 9 9 5 7 8 9 8 9 9 10 9 8
24 23 24 25 23 23 21 19 21 21 21 20 21 18 18 18 17 17 17 15 15 14 15 13 12 11 11 11 11 9 8 3 3 6 5 3 7 12 13 13 12 12 13 13
24 22 20 23 23 22 24 18 18 19 19 16 15 14 13 14 15 17 18 23 20 19 21 20 16 12 11 10 6 3 6 7 6 6 4 4 6 7 10 13 12 14 16 16

GFSNGP_850_spd_021.txt.gz
Wind_Speed
7 15 18 15 13 23 19 22 16 18 12 15 10 11 12 21 17 17 26 34 41 43 47 45 41 48 52 51 51 54 56 56 56 55 48 46 49 45 42 42 43 43 43 41
6 10 13 17 19 25 24 22 16 12 8 9 15 23 10 25 26 22 23 40 49 53 56 39 39 49 48 51 52 52 53 55 55 55 51 49 50 48 45 44 43 44 44 44
6 9 14 11 29 21 20 15 17 20 9 8 9 9 14 28 33 30 27 36 42 49 57 49 51 52 53 54 55 52 51 53 55 56 53 52 51 50 48 47 44 43 43 42
4 7 8 11 12 17 20 8 9 5 10 12 15 30 37 35 25 22 23 24 38 41 47 52 51 47 45 48 57 56 53 52 53 55 54 53 53 52 50 49 47 43 41 41
3 3 10 16 8 12 10 12 7 13 10 7 24 16 14 32 37 33 32 30 24 32 43 49 48 45 47 49 55 55 55 53 54 55 56 54 54 53 53 51 47 44 39 35
5 4 6 2 13 22 5 17 11 12 12 10 9 5 10 37 37 29 30 28 26 18 21 35 46 48 49 50 52 56 57 55 54 55 56 56 53 52 52 51 47 42 34 31
9 5 8 7 24 15 7 13 7 14 13 10 7 12 19 25 12 16 20 24 21 23 23 21 30 45 48 49 51 53 54 56 55 54 55 55 54 52 50 49 42 36 33 30
6 7 9 18 14 7 12 23 2 19 16 17 13 9 9 9 6 4 4 4 11 23 21 24 30 34 42 47 41 47 54 56 54 54 54 53 53 51 47 42 38 38 36 29
8 8 4 4 9 22 19 9 12 12 17 20 20 18 13 11 6 4 2 2 3 3 4 11 25 30 40 42 46 50 52 54 55 51 50 50 52 52 46 40 41 43 38 33
6 4 4 15 22 20 16 15 18 17 22 23 27 23 22 19 15 11 6 6 9 11 12 11 9 15 27 38 44 51 54 54 54 55 52 49 50 51 51 44 45 42 38 38
5 2 5 12 12 13 11 19 30 29 29 29 26 24 23 21 17 13 9 7 6 8 13 17 18 18 16 26 36 44 49 51 53 52 49 46 43 40 41 42 40 38 36 33
7 7 7 7 12 8 9 22 27 30 31 29 26 23 19 18 17 16 12 11 12 12 12 16 19 22 25 27 26 30 41 46 45 47 49 46 43 41 35 33 38 28 18 12
6 16 32 22 10 7 23 32 32 32 29 31 25 22 21 19 17 14 16 15 14 13 14 20 24 27 29 26 31 28 33 34 41 47 46 40 39 33 30 20 8 2 6 19
29 33 19 21 4 20 24 29 34 36 33 30 28 25 19 18 16 16 18 17 16 16 15 17 18 24 25 26 18 26 34 37 40 37 39 41 32 35 22 31 29 41 35 33
17 29 38 27 22 22 22 26 32 35 33 33 31 30 27 23 20 19 16 17 19 19 20 14 21 27 28 33 28 25 25 21 21 16 16 25 18 21 21 30 50 37 33 30
24 28 29 27 25 20 23 25 28 26 30 31 31 31 32 28 25 21 21 24 28 26 23 20 20 22 17 26 23 31 30 15 40 38 16 28 17 29 36 41 37 32 34 34
26 23 31 22 22 23 19 23 26 26 23 25 25 24 21 20 23 23 23 25 25 23 23 25 26 21 22 20 6 16 32 23 23 25 30 33 31 35 39 37 37 36 33 31
31 29 20 21 21 18 18 18 20 23 26 22 22 23 23 23 20 14 14 16 20 22 24 23 18 21 22 20 22 25 27 24 26 28 27 28 29 29 29 27 27 27 27 26
25 27 26 26 23 20 19 15 13 14 15 18 21 25 25 23 19 17 13 12 16 20 21 18 17 14 18 20 18 15 14 15 18 21 22 24 23 23 24 25 27 28 27 28
25 22 22 20 23 22 21 17 16 19 19 18 16 18 21 20 19 19 20 26 26 22 15 9 11 14 16 20 21 15 12 13 14 14 15 17 22 20 18 18 17 18 20 22
31 30 30 27 28 26 25 25 26 24 21 23 27 25 23 20 17 18 24 26 23 19 17 16 18 14 7 7 5 11 12 11 9 6 6 9 11 12 12 13 13 13 13 13
40 37 35 31 32 33 29 27 24 25 25 27 26 23 23 25 23 22 23 23 18 16 18 18 17 13 10 11 7 1 2 4 4 5 5 6 8 13 13 12 11 10 11 12
40 38 36 37 36 34 31 32 30 28 24 20 20 18 18 19 21 21 21 20 19 19 21 22 18 16 17 11 10 12 11 9 8 6 6 7 8 8 10 11 9 9 11 13
34 33 31 29 26 27 28 26 27 30 30 29 25 20 19 18 20 20 17 17 17 20 22 22 23 19 17 14 10 9 10 10 9 8 7 7 7 5 5 7 6 9 12 13
28 30 29 28 27 26 24 21 20 19 20 22 23 24 21 19 20 21 20 22 20 20 20 20 21 21 20 21 18 12 7 6 6 8 9 9 9 9 8 7 6 6 7 7
27 28 27 26 25 23 23 20 21 21 20 22 23 21 19 19 17 17 16 16 16 15 18 19 18 18 19 17 16 16 15 8 8 8 4 2 6 7 9 11 11 13 13 11
26 25 24 21 21 21 20 18 18 18 17 17 19 20 18 17 17 17 17 17 16 16 16 18 18 17 16 17 16 13 12 12 10 9 8 3 3 6 5 7 12 15 15 14

GFSNGP_850_spd_024.txt.gz
Wind_Speed
2 12 7 11 14 12 10 22 15 21 24 11 9 10 17 34 27 24 24 17 18 23 32 42 48 49 49 49 50 47 46 50 54 54 52 48 49 45 43 42 42 40 40 42
4 9 10 12 13 14 14 10 10 21 11 9 17 26 13 22 26 28 26 23 19 22 29 38 44 46 46 45 45 45 45 46 48 51 51 49 49 47 44 42 43 42 42 44
4 6 12 15 9 15 9 8 12 17 11 8 7 10 17 32 34 35 36 37 33 28 29 37 42 46 45 44 44 46 45 46 47 48 49 49 49 49 48 44 44 45 44 44
4 4 7 4 9 9 14 17 17 15 8 13 15 30 38 41 40 39 39 41 39 32 30 31 40 43 46 43 45 42 45 47 48 49 47 47 49 50 50 48 46 47 46 44
4 6 13 19 4 5 0 8 11 16 12 9 30 23 18 26 31 35 33 33 19 22 19 28 34 37 45 45 43 42 46 48 48 49 48 46 48 49 52 52 49 49 48 46
1 6 7 3 1 8 4 5 6 10 17 15 10 5 6 30 30 32 30 33 28 24 24 25 31 34 46 48 51 51 50 50 49 50 49 48 46 46 49 52 51 50 49 48
11 6 6 5 6 6 5 5 19 17 21 18 9 20 27 15 8 15 21 24 24 21 21 24 31 36 41 44 48 50 47 46 48 48 48 47 43 43 46 48 50 51 49 48
8 6 15 1 1 2 5 18 23 21 22 19 16 18 14 9 11 10 8 6 7 16 16 13 15 16 25 33 39 41 41 43 43 46 46 48 48 43 39 45 47 49 48 47
9 7 8 6 7 7 7 15 17 17 13 15 23 20 19 19 17 16 16 16 15 14 10 3 8 10 15 23 25 27 30 35 38 40 43 44 49 43 46 41 43 42 42 40
8 11 10 6 6 3 6 12 14 5 2 15 30 29 27 24 23 22 21 21 19 16 15 13 10 7 3 12 18 21 25 28 32 36 39 43 44 41 44 44 50 37 43 51
10 26 12 9 7 5 7 3 6 13 15 19 29 28 29 27 25 22 22 20 18 17 16 15 14 13 12 12 13 13 16 24 26 33 37 40 42 42 44 38 41 37 40 34
8 14 8 5 9 12 15 9 8 14 18 20 24 28 27 27 25 22 19 16 14 13 13 15 16 18 20 21 23 24 24 20 22 28 34 40 42 39 38 40 36 38 37 41
7 26 23 16 14 17 21 15 14 15 14 19 21 23 27 28 24 21 19 17 15 13 11 11 14 16 18 21 26 29 32 35 28 31 37 42 41 36 35 28 41 45 33 31
23 22 11 16 11 21 27 22 16 15 15 18 18 21 22 23 20 20 21 19 17 15 14 14 12 11 13 14 20 24 26 29 35 37 40 43 41 39 35 37 36 25 16 14
24 24 13 25 23 23 26 25 20 19 18 24 23 27 27 27 27 25 22 21 19 18 16 16 19 18 17 18 22 17 9 14 24 41 46 51 50 50 44 28 14 13 18 22
25 22 21 29 34 30 32 23 19 22 18 29 30 32 29 28 28 27 26 22 23 25 23 22 21 23 25 24 16 2 3 5 11 2 3 52 45 33 14 7 11 2 12 36
32 17 21 29 36 38 28 16 16 22 26 29 23 25 27 27 26 25 25 23 22 23 22 22 22 20 23 24 13 10 3 11 15 15 18 6 16 25 25 21 27 25 27 33
31 26 32 32 30 30 24 25 27 28 30 29 27 27 27 24 22 20 20 21 22 25 26 25 23 21 20 20 18 10 2 11 7 10 1 8 18 24 30 29 26 29 39 36
28 31 32 32 27 22 20 21 22 21 21 23 26 29 28 27 27 25 22 22 24 22 21 19 20 19 18 17 15 13 12 9 8 11 12 12 14 19 21 24 29 26 26 29
35 32 29 31 31 30 27 31 32 27 24 25 27 29 30 28 26 27 29 31 29 25 23 19 15 14 15 18 16 15 12 10 10 11 10 10 12 16 18 18 19 22 26 29
38 36 33 33 36 34 31 33 31 31 30 29 28 30 31 29 29 29 30 33 27 24 23 23 22 17 17 9 8 14 17 17 15 10 6 9 7 8 11 15 16 18 24 27
35 34 31 31 32 35 30 29 30 29 26 26 31 31 27 27 26 27 27 29 27 25 24 25 26 20 16 14 13 9 6 8 15 15 11 11 8 2 4 8 12 15 17 21
29 30 30 31 32 33 28 29 28 27 27 28 25 24 24 24 24 26 29 27 24 23 25 28 26 24 19 17 16 14 12 13 14 13 10 9 7 8 9 10 10 9 6 10
30 31 29 26 25 26 29 29 29 29 29 29 28 27 25 25 26 24 22 20 21 22 23 23 23 23 26 27 23 18 14 12 10 11 11 11 8 7 9 8 8 8 10 11
27 28 28 28 29 28 26 24 24 25 25 25 25 24 23 23 23 21 19 19 20 20 20 20 21 22 21 21 20 21 22 22 21 12 8 8 8 8 7 6 5 5 5 6
24 25 24 23 23 21 20 19 20 21 20 22 23 23 23 22 21 20 20 19 19 18 20 22 22 21 19 19 21 21 20 17 15 13 14 17 14 8 2 5 6 7 8 8
23 20 19 18 17 15 13 13 13 17 17 18 20 20 20 19 20 21 22 22 22 21 19 17 17 18 17 16 17 18 17 16 15 15 14 10 11 13 9 8 8 5 1 1

GFSNGP_850_spd_027.txt.gz
Wind_Speed
5 8 8 10 12 12 15 21 23 23 27 20 17 16 15 16 15 17 17 16 20 23 24 27 34 40 42 45 45 46 47 47 47 47 49 51 51 50 49 47 44 41 40 40
8 9 8 14 15 14 16 19 17 23 26 17 9 22 25 32 30 29 24 23 23 22 20 21 23 32 39 43 46 46 46 45 44 44 45 47 47 47 46 48 47 45 45 43
6 6 14 16 23 19 17 15 16 23 18 13 15 16 19 27 29 30 29 31 29 27 27 24 25 28 35 40 46 47 47 45 46 45 45 44 45 46 45 47 47 48 47 47
6 4 10 8 3 7 14 14 20 23 20 16 15 22 27 34 35 35 42 40 38 35 34 35 33 31 33 37 42 46 46 46 46 47 45 45 46 47 46 47 49 50 49 49
5 12 16 19 8 2 3 13 7 15 21 20 26 27 23 27 34 43 45 43 40 37 31 28 25 27 31 36 39 41 41 43 46 45 47 47 48 48 48 48 50 52 51 50
5 8 12 3 15 10 4 14 4 5 10 12 21 16 14 24 30 35 36 35 30 27 22 15 18 21 27 34 39 39 40 42 43 42 43 44 48 48 48 50 51 52 53 51
14 11 9 11 7 4 10 1 6 8 15 15 12 16 22 16 19 20 24 24 24 25 24 23 22 20 22 28 34 33 36 37 40 41 42 41 40 40 43 45 47 50 55 53
11 12 21 10 16 18 6 9 14 18 17 21 21 26 25 17 15 13 13 15 20 24 22 19 18 16 16 21 25 28 31 32 33 36 36 35 37 36 34 42 37 37 42 52
10 10 13 15 18 21 15 17 17 19 19 18 24 23 17 17 15 14 13 12 12 16 18 15 13 11 12 13 16 17 18 19 21 24 28 32 35 35 38 39 30 29 39 41
17 23 24 33 38 28 23 21 19 18 20 17 17 14 14 17 18 18 20 21 21 21 20 18 13 9 6 3 4 7 12 15 17 20 23 26 31 31 36 36 38 46 52 45
17 20 24 34 39 30 28 21 13 13 11 5 7 12 13 14 18 20 23 23 22 22 20 18 15 11 8 5 3 3 5 9 14 19 23 27 30 33 39 43 45 44 52 45
12 17 18 25 26 26 24 22 10 8 4 9 12 12 14 10 15 20 22 21 21 19 16 13 9 6 3 1 3 6 9 11 14 18 21 26 33 37 41 42 43 39 41 44
22 30 34 27 24 19 22 15 10 9 7 13 15 18 19 13 11 14 18 18 18 16 13 10 8 7 6 6 8 10 12 14 14 14 17 26 35 38 42 44 38 42 46 47
29 25 30 28 20 15 14 11 12 9 13 17 15 13 16 17 15 18 21 21 21 19 18 17 14 11 9 9 10 11 12 16 16 14 12 22 29 38 44 44 49 44 52 46
33 35 26 21 17 17 19 16 14 14 19 21 19 19 17 24 23 22 21 22 21 21 21 21 22 20 15 11 10 10 11 12 12 13 12 15 22 30 40 49 46 48 47 43
24 26 20 22 18 18 20 18 21 23 22 27 30 27 24 25 24 24 23 23 24 27 25 23 23 25 23 19 20 18 19 19 8 11 12 7 6 2 2 9 32 59 54 46
21 9 9 10 16 29 27 17 24 26 24 29 30 26 25 25 24 29 19 24 26 27 25 24 22 20 20 19 7 4 6 9 15 10 7 4 10 6 7 3 8 13 18 34
21 11 29 21 29 36 30 29 28 28 28 26 23 23 24 22 25 17 12 21 24 25 25 25 22 19 18 16 16 18 16 9 3 7 10 7 4 3 6 13 20 24 21 26
38 33 30 32 32 33 29 25 28 29 34 32 34 34 30 28 26 22 22 24 28 28 22 18 17 20 19 18 14 16 20 16 7 4 2 6 7 4 6 14 14 19 28 30
44 43 39 39 37 36 33 30 32 35 35 32 32 32 33 30 28 27 29 34 31 26 22 17 15 13 13 16 18 18 16 16 17 17 12 13 12 6 6 9 10 15 20 22
46 43 42 43 38 37 35 34 32 35 34 34 34 32 31 31 30 31 34 35 28 26 25 24 22 19 15 7 12 18 18 15 13 11 10 12 14 14 12 11 11 10 13 19
35 35 40 38 35 34 32 31 33 31 28 28 29 27 27 29 30 33 32 33 30 30 30 29 24 19 16 13 14 12 15 17 16 16 17 14 10 9 4 4 4 3 6 8
34 36 37 35 35 35 35 34 33 32 30 28 28 26 27 28 28 28 31 29 29 28 28 27 26 25 25 24 21 19 19 18 16 14 14 14 14 14 13 10 9 8 6 4
32 33 33 33 32 35 36 33 30 28 26 23 23 24 23 25 27 27 24 22 22 23 24 25 25 24 24 23 26 30 29 26 23 20 16 12 12 11 10 9 6 5 5 7
26 26 26 26 28 26 24 24 23 24 22 23 24 23 23 23 25 23 21 20 18 18 22 22 23 24 26 26 26 23 21 21 22 24 25 22 18 15 11 8 7 6 7 7
23 23 22 21 20 19 19 17 19 20 20 23 23 23 22 21 20 19 19 19 20 20 20 20 21 20 21 22 22 23 24 23 22 21 19 18 19 20 20 19 17 13 13 12
16 15 14 13 13 13 13 14 16 18 17 17 20 21 21 20 19 19 17 16 16 16 16 17 17 17 17 16 15 16 16 16 16 15 14 14 12 13 14 14 14 16 14 13

GFSNGP_850_spd_030.txt.gz
Wind_Speed
12 4 5 12 27 29 30 27 25 19 21 17 8 9 9 12 11 7 5 4 9 14 19 21 25 31 36 36 38 39 43 41 49 53 54 53 53 51 48 48 46 45 44 43
13 10 8 11 14 15 20 23 25 26 24 13 10 5 15 17 20 23 25 22 18 16 17 19 23 26 29 36 39 40 42 49 47 46 48 51 53 53 52 50 49 47 49 48
14 9 10 15 22 20 19 19 17 23 17 16 17 17 21 22 23 22 21 20 17 16 18 18 22 22 25 28 30 37 43 44 45 45 44 44 47 48 50 52 51 51 50 52
6 7 15 10 8 19 25 21 21 20 17 17 14 19 22 22 23 24 28 25 24 22 19 19 20 20 22 24 30 38 41 41 44 46 45 42 42 44 45 47 50 51 52 53
11 13 10 7 5 7 11 16 18 18 14 15 22 26 29 28 28 28 28 28 27 25 22 20 22 21 19 23 27 32 39 39 41 43 40 36 42 43 43 40 41 40 39 44
8 16 16 4 16 10 5 10 11 5 10 10 9 12 13 22 24 27 26 26 26 23 22 22 25 21 20 23 25 31 35 35 34 37 39 39 40 39 37 34 34 33 37 40
14 13 9 13 7 4 13 5 8 2 7 9 9 12 23 24 22 19 18 21 20 21 24 23 21 18 18 20 25 27 24 27 31 34 36 37 38 37 37 37 33 37 38 40
15 18 23 12 12 13 12 15 14 16 16 17 19 21 25 26 29 29 23 20 19 20 21 21 23 24 22 22 20 23 23 24 28 31 30 28 36 38 38 36 37 41 43 43
12 13 13 13 16 18 16 22 21 22 22 22 25 27 26 28 25 23 23 19 16 14 15 15 18 20 20 19 20 22 23 25 25 26 27 30 33 33 31 34 36 39 38 42
19 23 25 24 23 29 23 27 26 26 26 24 26 27 25 22 16 14 13 10 7 9 12 11 12 12 14 14 14 15 15 17 18 21 22 23 25 27 29 31 36 41 44 47
20 23 26 30 33 34 29 28 33 32 30 27 28 26 18 12 10 7 6 3 3 6 9 10 12 13 14 14 12 12 12 12 14 15 19 20 24 25 28 33 35 37 40 39
18 22 20 23 27 32 32 28 29 26 28 24 21 14 6 6 7 6 7 6 6 6 6 9 8 10 11 12 12 10 6 6 9 12 14 16 20 23 34 34 35 41 41 38
26 34 32 27 24 27 29 27 28 26 24 21 16 8 9 8 6 7 9 10 9 7 6 7 6 4 5 5 5 5 6 8 6 8 11 15 18 23 26 30 36 42 42 42
37 32 30 29 28 24 28 26 25 24 20 17 13 8 10 10 13 14 14 13 13 13 11 10 8 8 7 6 5 3 4 5 5 5 8 11 14 18 23 30 34 36 45 50
42 37 35 31 24 24 23 24 20 20 19 17 14 15 17 14 17 19 18 16 17 17 16 15 15 13 11 11 11 10 8 6 6 6 8 8 10 14 21 26 30 34 37 40
32 31 28 30 30 27 20 20 21 24 22 18 20 19 21 20 22 24 23 21 22 21 18 16 16 13 11 13 13 11 13 15 8 6 7 6 7 9 12 17 20 13 11 8
20 23 23 24 24 23 16 19 23 24 24 24 25 20 21 22 24 25 24 23 24 25 24 22 18 14 11 10 11 9 5 2 12 9 7 5 7 6 3 2 4 8 7 7
10 11 7 4 3 12 12 24 17 14 31 32 29 27 27 29 27 24 26 25 24 24 23 23 22 17 16 13 14 14 14 10 7 7 8 9 7 6 5 3 3 4 3 3
49 41 35 44 38 40 41 36 29 26 29 33 31 34 28 29 31 28 24 26 27 24 24 18 18 16 18 16 14 15 15 14 11 6 4 7 7 9 10 8 6 7 7 6
50 51 53 52 48 48 47 43 37 38 37 37 37 38 34 30 28 27 31 32 29 27 23 24 17 15 17 20 18 14 10 12 14 16 15 13 12 12 12 11 6 5 7 11
45 41 43 42 42 43 41 38 38 37 36 39 43 41 40 38 38 37 36 38 30 31 27 24 21 20 19 14 16 14 13 15 14 13 9 10 12 12 13 15 8 1 7 8
31 32 34 36 36 37 34 32 30 30 32 32 32 30 29 27 29 37 37 36 30 30 26 31 30 23 19 18 18 16 17 18 18 16 14 12 14 14 12 8 7 7 5 5
31 31 31 30 27 27 30 30 29 30 30 28 28 30 31 29 28 27 29 28 26 26 28 28 25 23 24 22 22 22 22 22 18 19 18 16 17 15 14 14 12 9 5 5
25 25 24 24 23 25 27 25 26 26 26 25 26 24 22 20 21 20 21 21 23 24 26 25 25 26 25 25 24 24 24 24 22 19 17 17 15 13 11 8 10 9 8 9
22 21 21 20 21 20 19 17 18 18 19 21 22 21 21 20 19 18 17 18 19 20 20 19 21 23 21 21 26 25 23 21 19 19 22 20 19 18 16 16 15 13 10 7
19 17 16 18 17 16 14 15 18 17 16 17 18 17 17 16 16 16 16 19 19 19 18 19 20 19 18 19 18 18 17 17 17 17 18 18 17 17 16 17 17 17 18 18
14 15 12 12 13 14 15 15 14 14 14 13 14 14 14 15 16 16 17 17 16 16 16 15 15 16 15 15 15 15 14 13 16 14 16 17 15 13 11 11 11 11 13 15

GFSNGP_850_spd_033.txt.gz
Wind_Speed
26 17 8 28 31 31 30 24 24 15 19 16 13 11 13 16 12 10 10 9 11 17 21 20 26 30 37 38 38 39 42 44 48 49 49 49 49 51 48 48 47 44 44 45
24 23 6 13 20 33 30 28 25 23 16 18 17 13 8 7 6 7 8 9 9 11 18 23 29 29 31 37 38 37 41 46 44 45 45 47 47 49 49 47 48 48 49 48
15 20 11 17 20 19 23 27 24 22 19 14 5 3 5 7 9 12 13 13 13 14 15 20 23 25 28 32 36 38 42 41 44 44 45 46 46 47 53 54 51 52 51 50
10 17 23 13 16 16 15 15 13 11 9 7 7 10 15 16 15 15 15 14 15 15 16 17 18 20 23 23 31 37 40 44 45 48 46 44 45 47 48 48 51 52 52 52
10 13 5 16 15 20 22 21 17 16 15 13 15 17 20 21 22 23 22 21 19 19 20 18 15 17 18 22 26 32 39 45 48 44 44 44 50 49 48 46 47 50 50 51
9 14 18 7 13 3 3 11 15 22 18 13 12 10 10 10 12 16 20 20 18 19 18 19 21 22 22 24 26 34 34 41 42 42 43 47 47 46 45 44 45 41 44 48
14 10 11 6 5 7 13 5 1 5 4 7 8 8 19 21 20 19 18 17 15 13 13 18 18 20 24 26 28 37 29 32 38 41 44 45 43 41 41 41 38 40 42 44
15 18 21 12 6 6 8 9 15 16 14 13 10 13 18 22 24 23 21 20 19 17 16 15 17 19 22 27 26 28 29 29 33 36 35 34 40 39 38 36 36 40 40 42
15 12 9 11 12 17 4 6 11 12 14 14 18 16 19 22 22 22 19 18 16 19 17 14 12 17 21 25 22 23 26 29 29 30 33 32 31 33 31 34 34 35 38 41
18 18 18 21 21 19 17 14 19 18 17 20 22 22 22 22 22 18 14 12 10 12 12 10 8 10 14 14 18 21 22 25 24 25 27 25 27 25 28 28 32 36 35 39
21 23 25 26 28 28 29 30 28 26 24 26 24 23 23 22 19 13 10 8 6 4 5 5 3 4 5 5 9 14 16 16 17 17 20 21 23 23 25 27 28 28 31 32
17 22 24 26 27 28 30 32 34 31 29 25 24 23 19 21 18 12 8 6 4 3 4 4 4 3 2 7 7 10 11 11 12 13 13 14 16 17 25 27 25 31 32 32
28 38 38 32 30 26 27 27 27 28 29 28 25 22 17 16 13 8 4 5 4 5 6 6 5 3 4 5 4 9 7 12 8 11 10 11 12 13 15 19 23 24 34 35
50 43 38 31 28 27 28 25 24 30 33 31 27 22 18 15 14 12 7 5 6 7 7 6 9 10 8 7 6 5 5 6 4 4 5 5 7 9 11 13 15 16 23 29
49 50 43 33 28 25 28 25 29 30 29 28 24 20 19 15 13 13 11 11 14 15 13 12 12 13 11 11 12 9 7 5 4 3 3 2 4 7 9 13 17 19 22 25
4 30 29 29 31 27 26 27 30 30 28 23 20 22 20 20 15 14 15 13 13 13 14 16 17 12 9 8 7 7 9 11 8 5 5 4 4 3 4 5 7 9 11 17
13 13 16 18 24 27 29 28 30 28 22 23 25 26 28 22 25 21 18 17 19 19 16 16 14 12 13 11 8 7 5 3 10 7 7 6 5 6 6 6 6 8 10 10
36 13 11 10 16 23 22 13 10 19 19 9 18 24 28 30 26 19 20 18 20 21 21 17 16 14 13 11 11 10 10 7 4 5 6 7 9 9 7 7 6 8 9 14
43 42 36 42 36 39 29 43 45 38 35 40 34 33 32 32 29 24 21 25 24 22 20 18 20 18 16 17 14 13 12 10 7 5 5 7 7 7 7 6 6 8 9 6
46 48 49 53 58 50 43 46 54 47 48 45 37 41 38 38 35 29 33 37 27 23 19 23 19 20 20 18 17 12 10 16 13 11 11 11 12 12 14 13 12 11 9 10
42 41 41 42 41 37 40 42 45 43 41 46 43 40 44 39 35 34 37 38 30 29 27 25 24 23 18 18 16 14 15 16 11 10 14 12 12 12 11 14 12 7 5 6
35 36 35 35 38 34 32 36 38 39 38 36 34 34 31 32 33 37 37 33 29 30 27 30 28 21 22 20 19 19 17 16 13 14 15 14 15 16 15 14 11 10 7 5
28 28 28 29 28 29 32 33 33 34 34 33 30 28 27 27 28 28 30 25 29 26 28 30 32 27 24 25 22 20 19 18 17 17 19 21 18 16 15 15 16 16 17 13
23 22 21 20 22 23 25 25 27 28 28 30 31 28 24 23 27 24 23 24 25 23 26 26 25 24 23 23 24 24 25 22 19 21 19 17 15 16 15 14 13 12 10 10
20 18 19 19 19 18 18 17 18 19 23 25 25 25 23 23 22 20 20 21 23 23 21 20 23 21 19 18 19 20 24 22 19 18 18 18 18 18 17 17 19 22 24 19
19 17 16 16 16 16 15 15 17 18 17 18 19 19 19 19 18 19 19 20 19 18 16 17 19 18 16 15 13 14 15 17 20 21 18 16 15 14 14 14 15 15 18 19
15 17 15 15 15 15 16 16 16 16 17 16 15 16 16 15 16 15 16 16 16 15 14 14 14 14 12 12 12 12 11 13 16 15 14 14 16 17 16 14 13 10 11 12

GFSNGP_850_spd_036.txt.gz
Wind_Speed
23 25 16 27 26 30 31 21 22 18 18 15 12 9 9 9 11 16 16 12 22 29 37 41 41 44 44 43 43 43 44 44 45 44 46 47 47 48 48 48 49 48 47 45
20 22 20 20 31 30 29 29 23 24 18 20 15 19 12 14 12 14 11 8 5 9 6 11 36 39 46 46 43 44 45 48 46 44 44 47 47 48 49 50 49 48 48 47
18 16 20 19 14 26 24 24 24 20 16 18 21 17 16 15 9 5 1 1 2 4 9 12 15 26 34 42 41 41 46 47 47 47 47 47 48 48 49 50 50 50 49 49
11 13 16 12 11 15 13 24 23 18 15 10 10 15 15 11 6 6 7 7 10 13 14 14 20 23 27 27 36 41 41 44 44 46 48 49 49 50 51 50 52 52 50 50
5 7 8 12 15 18 13 10 7 21 17 9 14 10 8 5 2 3 8 13 11 13 17 17 20 25 34 33 34 37 42 44 45 44 46 48 51 52 49 49 51 52 52 52
8 8 11 5 17 4 11 11 12 8 3 1 5 5 9 15 14 11 11 9 6 7 10 19 18 17 25 31 34 34 34 37 46 45 48 51 50 50 48 49 49 48 51 53
9 6 8 16 20 8 9 5 20 27 24 7 3 11 11 12 13 13 13 14 13 12 7 12 7 10 15 22 29 28 31 32 33 40 45 48 46 43 45 45 43 44 45 46
12 15 15 16 9 7 9 16 19 21 23 23 20 19 16 16 18 19 18 16 13 13 15 9 13 19 21 18 26 28 29 32 35 34 38 42 42 42 40 41 41 43 42 44
10 13 13 12 12 9 11 8 13 15 17 16 17 17 20 24 23 21 23 17 13 12 15 15 12 17 19 22 23 25 26 29 32 30 32 34 33 39 37 37 39 41 42 41
13 17 17 20 17 14 15 16 12 11 15 16 16 19 20 22 23 23 28 17 12 10 8 10 10 14 18 24 22 19 24 22 27 28 29 30 33 29 33 34 36 38 32 33
17 19 23 27 22 22 17 19 19 17 17 17 19 19 20 22 20 23 26 21 12 10 8 4 7 9 9 10 11 17 22 21 22 22 23 26 27 28 26 26 30 29 30 29
15 24 24 24 24 25 24 24 23 22 22 19 17 18 20 26 18 19 21 18 12 10 8 5 4 8 14 13 11 9 14 15 16 17 18 20 19 19 28 20 21 26 28 24
33 40 39 38 37 30 27 22 21 21 19 22 18 18 20 29 16 16 18 15 14 12 9 7 8 10 8 7 12 16 16 16 14 14 16 19 13 19 15 15 25 29 27 29
50 47 45 50 37 29 26 25 25 25 24 23 23 25 26 31 17 16 18 15 13 10 11 10 4 2 1 4 10 15 14 16 11 13 11 10 15 15 14 11 9 14 26 30
26 40 54 42 34 36 30 24 24 26 25 24 26 26 27 28 17 17 13 12 9 10 7 6 8 4 4 6 10 13 11 10 7 12 12 11 11 13 12 14 14 15 18 20
16 16 18 36 32 32 30 24 23 24 23 24 28 29 27 16 16 13 9 9 13 10 7 7 7 5 4 5 8 9 11 15 12 8 10 7 6 5 4 4 4 6 8 9
16 11 6 6 18 25 27 24 25 24 26 30 33 33 21 15 15 13 11 14 13 17 7 7 6 7 5 4 8 7 10 13 11 10 10 8 7 6 5 4 3 2 8 13
44 20 5 2 9 15 20 23 23 20 28 28 28 20 16 11 9 18 19 28 23 18 17 9 8 6 4 12 10 11 10 11 12 13 12 12 11 9 7 8 6 5 4 9
52 49 50 48 40 29 13 14 15 17 19 19 18 25 29 27 30 25 28 30 29 21 16 16 15 14 15 12 17 15 12 11 13 13 12 11 8 11 11 10 10 10 8 9
47 47 45 44 47 42 34 33 48 45 39 44 43 38 36 36 39 38 40 40 35 26 19 19 20 23 22 20 14 17 18 22 17 16 16 18 16 10 13 11 9 9 9 10
34 36 41 40 36 36 40 42 48 45 39 46 48 45 41 41 42 43 44 40 39 30 28 25 23 24 24 22 17 19 20 18 16 10 10 11 10 11 12 12 10 9 8 7
27 25 25 31 36 36 37 37 39 37 37 36 33 33 36 37 38 39 39 35 32 32 35 35 29 16 14 21 25 24 19 19 19 21 16 14 18 19 19 17 16 14 13 10
19 23 18 23 28 29 30 34 33 29 29 29 28 31 34 34 33 33 36 30 31 29 27 27 28 28 23 17 16 19 23 26 26 17 19 18 19 19 19 17 17 15 13 15
21 19 19 18 17 19 25 25 23 23 23 24 25 24 22 26 26 24 22 21 20 19 21 20 20 17 20 20 22 24 21 24 25 28 27 25 22 19 20 21 24 22 17 11
20 13 17 16 17 17 20 17 16 18 22 22 23 23 23 22 20 19 16 18 18 16 12 15 18 16 16 18 20 20 25 25 21 15 15 20 22 24 22 23 22 20 22 19
15 15 14 15 15 16 16 16 17 18 19 18 19 18 18 17 16 16 17 16 15 15 14 17 15 13 14 14 14 15 17 17 16 22 20 16 13 12 10 9 9 10 13 13
14 14 15 15 14 13 13 13 16 17 16 17 15 16 15 15 15 14 14 13 12 12 12 12 13 13 12 12 13 13 13 13 17 15 14 16 18 17 17 17 15 13 12 12

GFSNGP_850_spd_039.txt.gz
Wind_Speed
15 15 14 18 27 23 22 17 16 12 6 7 2 7 6 13 14 24 26 43 45 49 48 49 50 51 49 49 47 46 44 43 44 43 40 40 42 43 41 43 45 43 43 43
7 11 10 8 12 26 23 20 17 12 8 8 9 20 22 24 27 27 25 22 28 40 48 52 53 52 49 50 48 46 46 43 40 40 40 41 42 42 44 44 44 45 47 47
5 3 6 6 9 8 21 19 16 13 8 8 5 8 14 26 24 21 22 20 22 19 22 35 41 51 50 49 48 48 47 45 44 41 41 40 38 41 44 44 44 45 46 47
5 6 1 6 8 11 12 8 19 14 12 13 11 24 30 22 23 17 18 14 12 11 8 7 8 32 45 49 50 47 48 49 49 47 45 41 40 41 42 43 45 45 46 46
4 2 5 5 10 12 4 15 26 17 12 18 28 36 27 29 28 26 20 14 10 7 5 0 6 20 26 42 49 49 47 48 48 49 47 46 46 45 44 43 44 46 47 47
5 4 2 7 23 34 9 10 20 21 25 9 26 11 5 23 25 23 19 13 5 1 3 3 8 21 25 34 36 44 48 48 45 44 47 48 48 47 46 46 45 44 45 47
7 3 5 20 26 20 7 4 17 26 26 31 17 13 24 24 23 23 20 17 9 1 5 3 3 6 14 30 38 36 37 42 43 42 43 44 44 45 47 48 47 46 46 46
4 3 3 20 16 20 2 17 23 26 29 27 29 29 28 24 24 21 23 21 17 10 10 9 6 7 6 8 23 34 33 32 31 33 36 42 44 42 43 44 45 46 45 46
7 5 11 22 28 27 23 19 24 22 23 24 25 25 24 24 24 22 21 22 22 16 10 9 10 13 15 13 12 15 22 27 34 33 32 33 34 38 41 40 40 42 43 43
9 13 17 13 12 27 33 27 17 18 19 19 20 21 20 20 25 22 20 22 20 18 16 15 4 10 15 19 20 19 17 23 26 24 28 28 28 31 33 38 40 38 38 40
13 11 20 8 28 25 31 32 31 20 15 17 15 15 17 18 21 23 23 21 17 16 16 17 14 8 12 19 22 22 24 22 24 23 25 25 24 24 31 29 31 31 34 34
11 30 22 30 31 33 31 29 29 27 19 15 15 18 16 17 19 25 25 24 19 14 16 15 18 19 17 15 13 15 16 18 24 24 24 21 20 20 26 19 23 22 22 22
37 40 40 45 42 45 36 32 23 23 21 19 17 15 15 18 20 24 24 26 23 17 16 15 15 17 19 17 14 15 15 17 18 20 18 17 19 19 19 27 26 19 24 31
19 22 26 35 29 29 25 26 23 21 21 17 15 16 15 17 17 21 21 23 23 17 16 16 15 16 10 8 11 11 9 14 18 23 20 25 26 22 25 24 22 26 30 27
26 17 26 34 38 37 22 24 28 20 19 17 17 15 14 18 18 23 17 21 17 15 16 16 15 14 12 12 10 9 6 12 13 17 15 19 20 20 17 16 14 12 11 13
31 14 23 23 29 28 26 20 24 21 17 15 17 18 20 21 19 20 21 19 13 14 16 14 11 12 9 4 0 5 7 8 8 8 10 10 10 11 10 10 7 5 3 4
39 36 16 14 11 7 16 17 20 18 14 15 16 18 21 22 22 21 18 6 11 14 13 11 10 10 12 10 8 3 12 12 10 11 13 14 14 12 11 9 6 2 2 5
46 45 41 42 27 8 6 8 10 8 11 14 17 18 16 14 12 11 13 12 12 12 14 11 6 10 12 12 9 13 13 11 15 16 16 16 16 14 11 7 8 7 6 7
46 44 46 49 48 43 24 5 1 3 7 11 7 6 12 13 15 13 16 18 14 9 11 9 12 13 12 11 17 22 23 26 21 17 14 10 7 7 9 13 13 10 7 7
33 39 41 42 44 46 40 34 35 30 27 24 25 26 29 29 29 29 25 24 22 22 15 14 23 26 22 20 19 22 19 18 19 16 10 9 13 15 14 12 11 10 7 6
22 31 34 37 35 34 35 37 38 40 36 32 34 42 40 39 35 35 38 37 34 31 27 23 24 28 28 25 29 28 21 20 17 15 14 14 16 17 14 13 11 8 7 6
19 18 27 30 31 34 32 29 29 29 31 31 32 34 37 37 36 36 34 32 28 30 36 33 27 25 29 28 30 32 33 25 21 20 20 21 19 18 17 15 15 14 12 10
17 14 14 24 27 26 26 26 29 33 34 29 26 27 30 31 30 30 29 26 28 30 31 31 29 27 22 31 33 31 31 31 27 26 24 21 19 16 17 16 15 14 13 13
14 16 13 13 12 19 22 21 21 22 25 26 26 27 27 31 26 23 19 18 20 22 25 26 28 30 23 24 26 27 32 29 25 26 24 19 20 19 16 17 18 17 14 11
13 14 13 17 16 17 18 18 19 14 18 17 18 22 20 17 18 14 19 18 16 10 16 21 22 22 25 24 22 19 21 19 17 18 19 18 17 15 13 12 12 13 14 15
14 16 14 13 13 14 14 18 17 17 15 18 17 17 17 15 16 15 14 14 16 17 19 20 17 16 17 19 19 22 23 14 19 19 20 20 17 14 11 10 8 8 10 12
11 12 10 13 16 16 12 15 15 11 12 11 16 17 14 16 15 13 16 15 16 18 18 17 18 18 18 17 13 14 17 20 19 20 20 20 18 13 14 13 13 11 11 14

GFSNGP_850_spd_042.txt.gz
Wind_Speed
19 25 25 23 17 13 16 17 14 12 7 10 9 12 6 12 26 34 39 47 51 52 50 54 54 54 54 53 51 47 44 42 41 38 37 36 35 37 39 40 40 41 41 41
22 14 18 13 9 7 16 19 7 9 8 8 5 21 8 14 23 28 36 48 52 52 53 56 56 55 55 53 50 48 46 42 37 38 39 38 36 34 35 38 39 40 44 44
6 8 5 5 15 6 11 11 11 8 9 3 10 10 16 17 29 22 30 39 46 51 57 59 58 55 54 51 48 47 45 43 41 38 39 38 37 37 37 36 36 40 41 43
6 8 6 8 19 15 16 19 20 11 5 18 19 24 35 33 26 37 33 25 33 35 38 40 42 44 46 43 45 44 44 41 39 39 37 35 37 36 36 36 37 38 39 42
3 4 2 17 21 15 6 16 21 18 13 20 22 41 29 29 26 25 28 31 31 27 28 31 35 37 37 39 40 42 44 43 40 39 38 36 37 36 32 33 35 36 36 38
4 3 5 17 26 30 11 15 19 20 19 14 10 13 4 25 27 29 29 25 23 24 25 22 19 25 30 33 44 45 45 45 43 41 41 41 37 36 34 35 36 35 37 37
3 0 4 20 29 12 9 3 14 22 21 24 14 9 16 25 30 30 30 30 24 19 20 17 14 11 18 29 36 34 42 44 43 43 43 41 39 39 39 39 40 40 40 40
6 5 4 22 16 8 9 19 21 25 27 23 25 32 32 31 32 30 28 25 25 19 15 13 11 10 9 5 23 36 37 40 40 38 38 40 40 40 40 40 42 42 42 42
4 2 1 14 9 16 21 16 24 28 21 23 27 30 28 31 29 31 28 25 23 22 21 15 9 6 3 3 3 5 18 32 35 37 37 36 36 36 36 37 39 41 41 42
7 4 9 12 10 9 22 25 26 26 29 21 24 23 24 26 28 26 28 27 20 17 17 14 11 7 3 1 4 6 9 13 17 23 26 32 34 34 34 34 34 36 38 38
6 4 18 8 7 15 31 32 27 27 27 26 26 21 23 23 23 26 23 26 19 14 13 13 7 4 4 6 9 11 15 15 20 24 26 26 29 32 32 31 30 30 29 29
5 21 22 32 38 31 23 38 32 29 24 18 18 15 16 18 18 19 21 19 19 10 6 7 9 12 11 12 13 14 13 15 17 22 24 22 26 30 30 28 27 26 23 22
12 23 25 32 31 28 30 28 29 27 22 17 13 11 11 10 12 16 16 14 15 14 6 4 4 8 12 15 13 13 15 17 15 16 19 22 24 25 26 28 28 26 25 24
32 25 12 14 19 22 19 18 16 21 17 15 12 9 11 9 8 10 12 13 18 13 9 8 5 8 12 12 14 15 11 13 13 17 19 22 23 26 27 26 23 26 23 21
38 35 24 21 22 28 27 21 25 20 23 20 16 13 11 10 9 12 14 13 13 13 9 6 8 8 8 14 18 11 7 8 9 14 20 22 24 23 23 23 22 20 20 20
40 40 39 31 26 21 14 10 20 19 18 22 17 11 14 14 11 14 16 14 13 11 9 8 8 10 8 14 7 2 3 8 7 7 9 11 14 18 22 23 20 16 12 9
41 41 40 37 32 20 14 8 7 12 14 15 13 11 9 11 13 16 15 8 8 7 7 10 12 9 10 10 9 2 4 10 11 12 13 15 17 19 19 17 14 12 9 8
34 37 37 40 37 29 22 15 7 5 5 3 3 7 11 11 13 11 14 9 10 5 6 11 14 15 18 13 10 9 12 17 16 15 18 20 20 19 18 15 12 10 10 9
26 28 34 31 37 38 39 34 26 15 11 6 7 6 2 1 3 7 11 14 14 10 2 6 9 9 12 12 17 20 23 19 17 18 18 18 18 16 15 14 13 10 9 7
22 26 26 31 33 31 36 39 38 32 26 23 22 18 15 16 15 10 10 8 8 9 5 9 11 12 14 17 21 25 29 31 28 24 19 15 14 16 17 14 13 10 7 5
16 23 26 29 32 36 37 27 31 35 35 33 32 29 28 26 26 28 30 28 24 18 11 12 13 17 19 22 25 30 32 29 28 25 22 19 17 17 15 13 11 10 9 7
6 14 16 22 24 27 31 36 37 31 28 29 30 29 27 25 30 31 33 29 26 31 30 21 11 17 23 27 29 27 27 25 25 23 22 17 19 18 16 14 13 12 10 9
4 4 11 14 21 21 20 23 29 33 32 27 24 26 28 23 22 25 29 25 25 27 29 32 28 22 22 33 34 34 33 28 25 26 24 24 21 19 18 16 16 14 12 10
12 9 4 7 9 14 17 15 17 17 21 29 25 18 23 24 23 24 16 20 22 22 27 23 26 28 27 33 31 30 31 29 31 27 26 25 23 22 20 17 16 15 13 11
11 12 17 9 13 17 15 12 14 13 15 12 17 23 20 12 18 22 21 18 21 19 18 18 19 19 20 28 28 28 25 24 24 21 19 19 19 19 17 18 18 15 13 13
6 10 11 9 8 9 13 12 11 10 13 13 13 15 7 13 17 9 11 19 18 21 20 21 17 17 16 15 17 21 25 24 23 23 21 18 19 18 15 14 13 12 11 11
7 10 8 12 10 7 13 12 8 11 13 8 10 14 14 10 15 15 15 13 16 17 18 18 20 20 19 20 20 21 20 17 17 15 13 14 17 15 11 9 10 10 13 13

GFSNGP_850_spd_045.txt.gz
Wind_Speed
11 19 21 22 23 24 13 12 14 11 12 12 8 6 8 20 21 28 45 49 47 47 48 53 51 51 51 55 55 51 52 51 49 46 44 40 37 35 34 34 35 38 38 39
14 20 17 18 18 19 20 19 6 5 12 3 4 10 17 21 14 23 34 43 47 51 51 51 53 57 56 54 51 48 49 47 44 44 41 39 36 36 34 33 34 36 40 42
7 8 12 6 7 11 4 17 4 9 4 4 6 12 16 24 18 21 36 44 46 48 50 52 56 58 58 52 47 48 48 46 46 44 43 39 35 36 36 35 33 36 37 40
6 8 6 10 11 8 20 21 18 11 8 4 14 15 27 30 23 7 18 34 45 49 50 53 54 55 51 48 46 45 45 45 44 44 42 39 38 38 36 36 35 34 35 38
4 4 2 4 9 11 5 17 19 18 17 7 8 17 24 32 28 22 12 23 32 38 40 40 45 49 48 45 42 42 42 41 42 41 39 38 37 35 33 34 34 34 34 35
3 5 3 4 19 30 11 10 20 21 18 17 10 9 5 26 27 27 26 21 22 25 28 30 34 40 42 41 38 38 37 37 36 35 34 35 33 30 28 30 29 28 29 29
9 5 2 7 23 18 7 1 20 22 23 23 12 5 14 23 28 29 29 29 28 24 26 27 29 33 34 32 32 31 34 38 35 33 33 33 32 32 30 30 30 31 31 31
2 3 4 15 9 7 3 5 15 23 28 22 22 24 26 29 31 30 32 31 30 30 29 23 21 31 30 29 30 29 31 32 33 36 36 37 35 34 34 33 33 34 34 35
1 3 3 16 5 10 11 9 18 25 30 30 21 22 24 27 28 30 29 28 26 28 27 25 23 21 22 19 18 17 24 26 27 26 30 34 35 33 33 33 34 33 34 35
7 6 12 21 7 6 14 21 21 23 28 26 28 19 22 22 25 25 26 26 23 22 23 21 16 14 15 12 10 9 8 9 15 21 24 26 28 29 31 30 30 31 32 31
5 6 24 12 17 25 24 23 27 26 24 23 24 20 18 19 21 21 21 23 20 19 16 15 13 8 4 4 6 7 8 7 8 11 13 18 21 24 26 28 30 29 28 25
3 14 12 22 28 24 17 22 25 27 27 21 17 20 15 18 18 19 19 18 18 15 13 11 9 8 6 5 8 10 13 15 14 14 15 18 19 22 25 27 28 27 25 23
8 21 14 20 22 12 11 12 20 22 26 26 18 12 11 12 15 17 17 18 18 16 10 8 6 7 10 12 10 9 11 15 19 18 17 17 19 21 23 25 27 26 24 22
25 21 16 13 15 18 16 18 17 21 24 29 26 17 13 13 13 13 17 18 19 19 15 10 6 6 7 9 14 16 11 8 8 12 13 14 14 16 19 21 23 24 23 21
27 27 20 19 17 17 16 13 15 20 23 25 29 21 16 17 17 14 14 15 17 18 18 14 10 7 6 7 14 14 5 3 1 3 7 10 12 14 17 19 20 20 18 18
25 28 28 33 31 23 21 18 15 15 15 18 25 25 18 14 14 14 15 17 20 20 17 15 12 11 8 8 7 11 6 3 2 2 2 4 11 16 18 20 19 17 16 13
23 30 32 34 33 33 29 15 14 16 15 13 14 20 21 21 16 16 21 18 16 15 15 14 13 13 12 9 9 11 10 7 4 2 3 5 8 11 17 20 18 16 14 13
21 24 27 27 32 34 33 28 13 12 11 4 3 6 8 14 18 19 18 21 21 16 15 16 16 15 16 16 19 17 13 10 8 6 5 7 11 15 17 16 14 12 11 11
25 25 28 36 29 27 29 29 27 15 7 5 2 3 5 8 13 17 18 17 18 19 17 19 20 24 24 21 21 22 20 15 13 12 10 12 14 15 16 15 14 13 12 12
18 22 25 28 31 36 32 27 27 28 24 21 15 9 5 2 1 1 4 11 13 18 23 19 19 19 18 16 14 18 21 23 23 21 20 20 19 20 18 15 13 12 11 10
12 16 18 19 22 26 30 32 28 25 26 28 26 24 22 19 18 15 13 8 4 9 17 18 18 20 23 24 24 24 25 29 29 27 27 26 24 23 21 18 15 14 12 10
5 10 12 15 14 15 18 24 31 27 24 23 23 24 25 25 25 26 23 21 20 20 14 5 13 18 23 25 23 22 28 31 32 30 29 26 24 24 24 22 19 16 14 13
3 3 6 9 11 10 10 11 17 23 29 24 26 24 24 26 23 25 26 24 20 23 24 17 11 16 21 20 23 27 29 30 30 30 28 27 29 25 24 23 21 16 14 12
8 3 5 8 10 8 7 7 9 10 15 21 23 24 23 27 25 22 22 12 20 22 24 26 24 22 27 27 28 30 30 31 31 32 31 30 26 24 26 23 22 20 16 14
5 5 7 2 3 11 10 3 5 7 11 13 15 20 18 17 16 19 16 15 22 21 24 24 24 27 29 33 33 33 32 31 29 29 33 29 25 23 24 24 23 19 14 13
4 5 2 5 7 9 10 8 12 11 11 9 11 13 14 16 14 15 16 16 20 23 27 23 24 22 22 23 24 27 25 23 22 23 22 20 16 15 18 18 19 19 16 15
6 4 3 6 4 7 8 5 7 12 13 13 13 10 10 10 12 11 10 14 17 15 18 22 24 23 21 19 18 21 20 20 18 17 19 20 16 15 16 17 18 16 14 13

GFSNGP_850_spd_048.txt.gz
Wind_Speed
11 12 10 10 16 17 6 12 3 6 10 10 10 10 7 10 13 19 28 35 39 42 46 48 48 52 49 49 48 48 47 47 46 45 43 41 41 39 39 37 34 32 34 35
5 12 14 15 16 15 18 18 11 17 10 4 5 5 6 9 14 18 25 29 33 42 46 49 53 56 54 51 49 46 43 43 43 43 43 42 40 39 38 37 36 35 36 36
5 4 8 6 15 8 6 9 3 6 2 7 1 6 11 14 17 21 25 26 29 47 49 51 54 56 55 54 48 44 39 38 39 41 42 41 39 39 38 38 36 36 36 37
4 2 3 4 3 14 15 14 15 9 13 7 8 12 18 24 23 19 20 17 28 40 48 52 52 52 50 51 48 42 39 41 40 40 39 40 40 40 38 37 37 36 36 35
3 0 5 3 6 6 5 8 15 13 15 13 12 8 9 30 22 20 15 10 22 34 38 43 47 47 47 45 44 42 41 38 37 37 37 37 38 37 37 36 35 36 35 34
3 1 6 5 12 17 4 6 15 17 15 13 13 7 7 30 26 21 16 4 13 25 29 33 37 39 41 41 41 42 38 37 36 35 35 35 33 34 33 33 33 34 34 34
6 2 6 13 25 12 5 2 12 16 19 20 11 4 14 27 30 25 21 12 12 21 25 26 29 31 34 36 39 37 34 33 30 30 30 29 29 30 32 31 30 29 28 27
5 5 4 23 11 6 1 6 10 15 19 20 20 19 28 32 33 34 31 24 17 16 23 25 25 26 30 29 29 29 28 27 27 27 28 29 28 27 27 27 27 27 27 26
1 2 14 23 13 8 13 8 11 16 19 21 23 26 28 32 32 33 32 30 30 30 15 22 27 25 24 26 27 27 27 25 23 22 24 26 26 26 26 26 27 27 28 28
4 2 13 16 1 15 15 13 9 13 15 21 23 24 26 29 31 31 32 30 26 26 29 29 21 19 18 16 15 17 20 21 20 20 20 21 22 23 25 25 26 26 26 26
2 4 16 8 26 20 21 14 12 11 13 16 20 22 21 24 26 29 29 26 23 21 20 20 19 18 16 14 14 13 12 11 11 13 18 21 24 24 24 25 23 25 25 23
2 12 11 13 23 23 21 18 17 17 12 14 16 16 16 17 20 24 27 26 24 19 16 15 13 13 11 9 5 6 8 9 10 10 12 14 18 22 23 24 24 25 26 23
7 21 14 17 15 17 22 21 19 19 18 18 18 15 12 12 14 18 20 22 23 23 19 14 10 9 9 8 7 4 5 9 12 13 14 15 17 20 21 22 23 24 24 21
25 19 13 19 17 22 21 17 15 16 18 20 18 20 16 12 12 13 15 17 18 19 19 16 10 7 6 7 9 10 8 5 7 12 16 17 18 19 19 20 18 17 19 19
27 24 23 21 22 24 19 17 16 17 17 18 15 17 16 12 10 10 14 14 16 21 19 15 14 9 5 5 6 8 9 4 2 4 7 11 13 15 15 15 13 12 12 12
19 21 23 26 27 28 25 21 21 21 20 16 15 12 12 13 11 7 8 13 18 18 17 17 14 13 11 6 4 6 7 5 4 3 4 7 12 16 14 15 15 14 13 13
18 24 22 20 24 26 26 23 19 19 15 14 13 10 10 11 13 13 14 14 14 14 16 20 18 13 13 11 8 7 7 7 7 6 4 7 9 13 18 17 17 16 16 15
15 20 23 20 20 22 23 24 22 18 17 14 9 5 3 11 15 14 17 16 16 19 21 21 19 14 12 12 12 11 10 10 9 8 8 11 10 11 14 15 16 15 15 14
14 19 22 25 27 25 24 24 25 21 16 13 11 12 10 11 12 15 18 19 17 18 21 21 22 18 15 18 18 16 16 14 13 14 12 13 13 13 16 18 18 17 16 15
6 10 14 17 21 25 26 27 24 23 25 19 13 10 12 11 9 9 7 11 11 12 16 20 19 17 19 22 20 14 11 15 17 20 20 18 18 19 19 18 18 17 15 13
3 7 11 13 15 19 24 27 27 31 26 21 26 27 25 22 24 21 18 20 20 15 15 22 23 18 17 20 17 11 12 14 20 24 24 24 23 23 22 20 18 15 14 16
3 4 9 13 16 17 18 20 24 26 28 28 20 17 19 27 24 25 24 24 24 26 16 14 15 18 17 16 21 20 17 18 22 26 27 28 28 27 25 23 20 20 19 18
4 3 6 9 13 14 13 13 13 18 21 23 23 25 27 25 26 27 26 23 25 26 26 19 11 11 11 12 18 19 22 22 25 29 29 31 31 29 27 26 25 23 23 21
4 7 4 5 9 12 9 7 10 12 12 12 14 14 18 16 19 24 27 29 20 20 29 33 20 6 7 12 12 15 18 20 19 22 24 26 29 31 30 28 27 26 25 23
4 6 4 4 6 9 9 7 7 9 9 11 12 16 13 16 11 11 16 24 29 28 20 23 27 35 32 28 30 29 28 27 29 32 32 33 30 28 29 28 22 23 23 20
4 7 3 4 5 7 8 9 13 14 10 6 7 11 12 14 10 12 10 13 26 27 30 25 26 25 25 29 31 33 35 35 33 31 33 29 27 25 25 23 19 17 17 17
5 5 2 2 4 6 6 7 12 16 12 9 5 6 8 7 9 11 13 10 17 26 26 28 29 24 26 27 27 27 26 28 27 27 25 23 23 23 21 19 16 14 11 13